Weather History for K1P1 - December, 2012

Change the Weather History Date:

Saturday, December 15, 2012

  Actual Average (KLCI) Record (KLCI)
Temperature  
Mean Temperature 28 °F -  
Max Temperature 37 °F 33 °F 57 °F (2008)
Min Temperature 18 °F 19 °F -3 °F (1976)
Degree Days  
Heating Degree Days 38    
Moisture  
Dew Point 12 °F    
Average Humidity 52    
Maximum Humidity 84    
Minimum Humidity 23    
Precipitation  
Precipitation 0.00 in - - ()
Sea Level Pressure  
Sea Level Pressure 30.27 in    
Wind  
Wind Speed 7 mph (WNW)    
Max Wind Speed 14 mph    
Max Gust Speed 23 mph    
Visibility 10 miles    
Events      
Averages and records for this station are not official NWS values.
T = Trace of Precipitation, MM = Missing Value Source: NWS Daily Summary

Daily Weather History Graph

Daily Weather History Graph

Search for Another Location

Airport or City:

Trip Planner

Search our weather history database for the weather conditions in past years. The results will help you decide how hot, cold, wet, or windy it might be!

Date:

Astronomy

Dec. 15, 2012 Rise Set
Actual Time 7:14 AM EST 4:10 PM EST
Civil Twilight 6:41 AM EST 4:43 PM EST
Nautical Twilight 6:05 AM EST 5:19 PM EST
Astronomical Twilight 5:30 AM EST 5:54 PM EST
Moon 9:01 AM EST (12/15) 7:15 PM EST (12/15)
Length of Visible Light 10h 01m
Length of Day
8h 56m
Waxing Crescent, 8% of the Moon is Illuminated
Dec 15
Waxing Crescent
Dec 20
First Quarter
Dec 28
Full
Jan 4
Last Quarter
Jan 11
New

Hourly Weather History & Observations

Time (EST) Temp. Windchill Dew Point Humidity Pressure Visibility Wind Dir Wind Speed Gust Speed Precip Events Conditions
12:15 AM 37.6 °F 34.0 °F 24.4 °F 59% 30.14 in 10.0 mi NW 4.6 mph - N/A   Overcast
12:35 AM 37.4 °F 30.8 °F 24.1 °F 59% 30.14 in 10.0 mi NW 9.2 mph - N/A   Overcast
12:55 AM 37.4 °F 32.8 °F 23.9 °F 58% 30.15 in 10.0 mi WNW 5.8 mph - N/A   Overcast
1:15 AM 36.9 °F 30.7 °F 23.7 °F 59% 30.16 in 10.0 mi WNW 8.1 mph - N/A   Overcast
1:35 AM 36.5 °F 30.3 °F 24.1 °F 61% 30.17 in 10.0 mi WNW 8.1 mph - N/A   Overcast
1:55 AM 36.1 °F 27.3 °F 23.9 °F 61% 30.17 in 10.0 mi NW 13.8 mph 19.6 mph N/A   Overcast
2:15 AM 36.0 °F 27.1 °F 23.9 °F 62% 30.17 in 10.0 mi NW 13.8 mph 23.0 mph N/A   Overcast
2:35 AM 35.1 °F 27.4 °F 23.2 °F 62% 30.19 in 10.0 mi NW 10.4 mph 19.6 mph N/A   Mostly Cloudy
2:55 AM 34.3 °F 27.7 °F 22.6 °F 62% 30.19 in 10.0 mi WNW 8.1 mph - N/A   Mostly Cloudy
3:15 AM 33.8 °F 25.3 °F 21.7 °F 61% 30.19 in 10.0 mi NW 11.5 mph 17.3 mph N/A   Scattered Clouds
3:35 AM 33.1 °F 26.1 °F 21.2 °F 62% 30.19 in 10.0 mi NW 8.1 mph 16.1 mph N/A   Clear
3:55 AM 32.9 °F 28.5 °F 20.8 °F 61% 30.20 in 10.0 mi North 4.6 mph - N/A   Scattered Clouds
4:15 AM 32.0 °F 23.6 °F 20.1 °F 62% 30.21 in 10.0 mi WNW 10.4 mph 17.3 mph N/A   Scattered Clouds
4:35 AM 32.0 °F 23.6 °F 19.4 °F 60% 30.22 in 10.0 mi NW 10.4 mph - N/A   Scattered Clouds
4:55 AM 31.5 °F 22.3 °F 19.8 °F 62% 30.23 in 10.0 mi WNW 11.5 mph 17.3 mph N/A   Scattered Clouds
5:15 AM 30.9 °F 22.8 °F 20.1 °F 64% 30.24 in 10.0 mi WNW 9.2 mph - N/A   Clear
5:35 AM 30.2 °F 24.3 °F 19.8 °F 65% 30.25 in 10.0 mi WNW 5.8 mph - N/A   Clear
5:55 AM 29.7 °F 23.7 °F 20.3 °F 68% 30.26 in 10.0 mi West 5.8 mph - N/A   Clear
6:15 AM 29.3 °F 21.5 °F 19.8 °F 68% 30.27 in 10.0 mi West 8.1 mph - N/A   Clear
6:35 AM 28.8 °F 20.9 °F 19.4 °F 68% 30.28 in 10.0 mi WNW 8.1 mph - N/A   Clear
6:55 AM 28.6 °F 21.5 °F 19.2 °F 68% 30.29 in 10.0 mi WNW 6.9 mph - N/A   Clear
7:15 AM 28.4 °F 20.4 °F 18.9 °F 67% 30.29 in 10.0 mi West 8.1 mph - N/A   Clear
7:35 AM 27.9 °F 19.8 °F 19.0 °F 69% 30.29 in 10.0 mi West 8.1 mph - N/A   Clear
7:55 AM 28.0 °F 21.7 °F 18.5 °F 67% 30.30 in 10.0 mi WNW 5.8 mph - N/A   Clear
8:15 AM 28.4 °F 23.3 °F 18.5 °F 66% 30.31 in 10.0 mi West 4.6 mph - N/A   Clear
8:35 AM 28.8 °F 22.6 °F 18.5 °F 66% 30.32 in 10.0 mi West 5.8 mph - N/A   Clear
8:55 AM 28.8 °F 20.2 °F 18.1 °F 65% 30.32 in 10.0 mi West 9.2 mph - N/A   Clear
9:15 AM 29.1 °F 22.1 °F 18.0 °F 63% 30.32 in 10.0 mi West 6.9 mph - N/A   Clear
9:35 AM 29.3 °F 20.2 °F 17.2 °F 61% 30.32 in 10.0 mi West 10.4 mph - N/A   Clear
9:55 AM 29.8 °F 20.9 °F 15.4 °F 55% 30.32 in 10.0 mi West 10.4 mph 18.4 mph N/A   Clear
10:15 AM 30.2 °F 20.8 °F 14.5 °F 52% 30.32 in 10.0 mi West 11.5 mph 17.3 mph N/A   Clear
10:35 AM 30.9 °F 22.8 °F 13.5 °F 48% 30.32 in 10.0 mi West 9.2 mph 16.1 mph N/A   Clear
10:55 AM 31.5 °F 24.9 °F 12.6 °F 46% 30.30 in 10.0 mi West 6.9 mph - N/A   Clear
11:15 AM 32.0 °F 25.6 °F 11.1 °F 42% 30.30 in 10.0 mi WNW 6.9 mph - N/A   Clear
11:35 AM 32.0 °F 23.6 °F 8.8 °F 38% 30.29 in 10.0 mi WNW 10.4 mph - N/A   Clear
11:55 AM 32.7 °F 26.4 °F 8.1 °F 36% 30.29 in 10.0 mi West 6.9 mph - N/A   Clear
12:15 PM 33.4 °F 26.6 °F 5.9 °F 31% 30.29 in 10.0 mi West 8.1 mph - N/A   Clear
12:35 PM 33.8 °F 26.4 °F 4.5 °F 29% 30.29 in 10.0 mi West 9.2 mph - N/A   Clear
12:55 PM 33.8 °F 25.8 °F 2.7 °F 27% 30.28 in 10.0 mi West 10.4 mph 16.1 mph N/A   Clear
1:15 PM 33.6 °F 26.2 °F 2.3 °F 27% 30.28 in 10.0 mi West 9.2 mph 17.3 mph N/A   Clear
1:35 PM 33.6 °F 25.6 °F 1.2 °F 25% 30.27 in 10.0 mi West 10.4 mph 16.1 mph N/A   Clear
1:55 PM 33.8 °F 24.8 °F 0.5 °F 24% 30.27 in 10.0 mi West 12.7 mph 17.3 mph N/A   Clear
2:15 PM 33.8 °F 27.0 °F 0.3 °F 24% 30.27 in 10.0 mi WSW 8.1 mph - N/A   Clear
2:35 PM 33.8 °F 29.6 °F 0.5 °F 24% 30.27 in 10.0 mi West 4.6 mph - N/A   Clear
2:55 PM 32.7 °F 25.0 °F 0.7 °F 26% 30.27 in 10.0 mi WSW 9.2 mph - N/A   Clear
3:15 PM 32.0 °F 25.6 °F 2.1 °F 28% 30.27 in 10.0 mi West 6.9 mph - N/A   Clear
3:35 PM 31.6 °F 27.0 °F 1.8 °F 28% 30.27 in 10.0 mi West 4.6 mph - N/A   Clear
3:55 PM 31.3 °F 25.6 °F 0.3 °F 27% 30.27 in 10.0 mi West 5.8 mph - N/A   Clear
4:15 PM 30.7 °F 24.9 °F -0.2 °F 27% 30.28 in 10.0 mi WSW 5.8 mph - N/A   Clear
4:35 PM 30.9 °F 23.5 °F -3.3 °F 23% 30.28 in 10.0 mi West 8.1 mph - N/A   Clear
4:55 PM 30.6 °F 23.1 °F -3.5 °F 23% 30.29 in 10.0 mi West 8.1 mph - N/A   Clear
5:15 PM 30.0 °F 22.4 °F -2.0 °F 25% 30.29 in 10.0 mi West 8.1 mph - N/A   Clear
5:35 PM 29.3 °F 23.2 °F -1.1 °F 27% 30.29 in 10.0 mi WNW 5.8 mph - N/A   Clear
5:55 PM 28.4 °F 23.3 °F 0.7 °F 30% 30.29 in 10.0 mi WNW 4.6 mph - N/A   Clear
6:15 PM 27.5 °F 22.2 °F -1.5 °F 29% 30.30 in 10.0 mi NW 4.6 mph - N/A   Clear
6:35 PM 26.4 °F - 1.6 °F 34% 30.30 in 10.0 mi Calm Calm - N/A   Clear
6:55 PM 25.5 °F 21.3 °F 1.6 °F 36% 30.31 in 10.0 mi NNW 3.5 mph - N/A   Clear
7:15 PM 25.5 °F 21.3 °F 1.0 °F 35% 30.32 in 10.0 mi NNW 3.5 mph - N/A   Clear
7:35 PM 23.9 °F - 7.5 °F 50% 30.32 in 10.0 mi Calm Calm - N/A   Clear
7:55 PM 22.5 °F - 8.2 °F 54% 30.32 in 10.0 mi Calm Calm - N/A   Clear
8:15 PM 21.6 °F - 12.2 °F 67% 30.32 in 10.0 mi Calm Calm - N/A   Clear
8:35 PM 21.0 °F - 10.4 °F 64% 30.32 in 10.0 mi Calm Calm - N/A   Clear
8:55 PM 20.8 °F - 10.2 °F 64% 30.32 in 10.0 mi Calm Calm - N/A   Clear
9:15 PM 20.1 °F - 10.6 °F 67% 30.32 in 10.0 mi Calm Calm - N/A   Clear
9:35 PM 19.6 °F - 13.3 °F 77% 30.33 in 10.0 mi Calm Calm - N/A   Clear
9:55 PM 19.6 °F - 11.7 °F 71% 30.33 in 10.0 mi Calm Calm - N/A   Clear
10:15 PM 19.0 °F - 12.4 °F 75% 30.33 in 10.0 mi Calm Calm - N/A   Clear
10:35 PM 18.7 °F - 12.7 °F 78% 30.33 in 10.0 mi Calm Calm - N/A   Clear
10:55 PM 18.5 °F - 13.5 °F 81% 30.32 in 10.0 mi Calm Calm - N/A   Clear
11:15 PM 18.7 °F - 14.5 °F 84% 30.32 in 10.0 mi Calm Calm - N/A   Clear
11:35 PM 19.4 °F - 14.0 °F 80% 30.33 in 10.0 mi Calm Calm - N/A   Mostly Cloudy
11:55 PM 20.1 °F - 14.7 °F 80% 30.33 in 10.0 mi Calm Calm - N/A   Scattered Clouds